Weather reports worldwide

Advertisment
Shoeburyness Landwick, United Kingdom (3693): temperature & dewpoint: 17.08.2019 13:00:00 - 23.08.2019 13:00:00 (BST)Shoeburyness Landwick, United Kingdom (3693): temperature -20cm & temperature -100cm: 17.08.2019 13:00:00 - 23.08.2019 13:00:00 (BST)Shoeburyness Landwick, United Kingdom (3693): wind speed: 17.08.2019 13:00:00 - 23.08.2019 13:00:00 (BST)Shoeburyness Landwick, United Kingdom (3693): wind direction: 17.08.2019 13:00:00 - 23.08.2019 13:00:00 (BST)Shoeburyness Landwick, United Kingdom (3693): reduced air pressure: 17.08.2019 13:00:00 - 23.08.2019 13:00:00 (BST)Shoeburyness Landwick, United Kingdom (3693): visibility: 17.08.2019 13:00:00 - 23.08.2019 13:00:00 (BST)Shoeburyness Landwick, United Kingdom (3693): sunshine duration: 17.08.2019 13:00:00 - 23.08.2019 13:00:00 (BST)Shoeburyness Landwick, United Kingdom (3693): precipitation: 17.08.2019 13:00:00 - 23.08.2019 13:00:00 (BST)
Date & Time tt [°C] td [°C] tt -20cm [°C] tt -100cm [°C] ff [km/h] ff [kn] dd ppp [hPa] vv [km] sd [min] rr [mm]
23.08.2019 13:00:00 22,1 15,1 - - 15 8 SE 1025,2 35 60 -
23.08.2019 12:00:00 21,0 14,8 - - 11 6 SSE 1025,5 35 60 0,0
23.08.2019 11:00:00 20,1 14,9 - - 11 6 SSE 1025,7 30 60 0,0
23.08.2019 10:00:00 19,4 15,0 18,0 17,2 5 3 SSE 1025,9 40 60 0,0
23.08.2019 09:00:00 19,2 14,7 - - 4 2 NNW 1025,8 30 60 0,0
23.08.2019 08:00:00 17,4 15,5 - - 4 2 WSW 1025,8 30 60 0,0
23.08.2019 07:00:00 12,7 12,0 - - 4 2 SW 1025,5 15 0 0,0
23.08.2019 06:00:00 11,8 10,7 - - 4 2 WSW 1025,2 12 0 0,0
23.08.2019 05:00:00 12,8 11,7 - - 4 2 NW 1025,0 12 0 0,0
23.08.2019 04:00:00 12,5 10,3 - - 0 0 N 1025,2 29 0 0,0
23.08.2019 03:00:00 14,1 11,2 - - 4 2 W 1025,3 30 0 0,0
23.08.2019 02:00:00 16,1 12,8 - - 8 4 W 1025,4 30 0 0,0
23.08.2019 01:00:00 16,9 13,5 - - 11 6 W 1025,4 35 - 0,0
23.08.2019 00:00:00 17,4 13,5 - - 13 7 SW 1025,5 35 0 0,0
22.08.2019 23:00:00 17,9 13,8 - - 13 7 SW 1025,1 30 0 0,0
22.08.2019 22:00:00 17,8 14,3 - - 13 7 SW 1025,1 30 0 0,0
22.08.2019 21:00:00 18,7 14,0 - - 11 6 SW 1024,8 30 0 0,0
22.08.2019 20:00:00 21,2 13,0 - - 13 7 WSW 1024,2 40 42 0,0
22.08.2019 19:00:00 22,5 12,5 - - 18 10 WSW 1023,8 40 60 0,0
22.08.2019 18:00:00 23,5 11,9 - - 15 8 WSW 1023,7 45 60 0,0
22.08.2019 17:00:00 23,5 11,8 - - 21 11 SW 1023,8 40 60 0,0
22.08.2019 16:00:00 23,3 11,3 - - 18 10 W 1024,2 20 60 0,0
22.08.2019 15:00:00 23,2 11,6 - - 16 9 WSW 1024,3 30 60 0,0
22.08.2019 14:00:00 22,3 10,2 - - 21 11 SW 1024,6 30 60 0,0
22.08.2019 13:00:00 21,9 11,3 - - 21 11 SW 1024,7 45 60 0,0
22.08.2019 12:00:00 20,9 10,8 - - 16 9 WSW 1025,2 35 60 0,0
22.08.2019 11:00:00 18,9 9,6 - - 21 11 WSW 1025,4 45 60 0,0
22.08.2019 10:00:00 17,8 10,5 17,7 17,4 21 11 WSW 1025,3 45 60 0,0
22.08.2019 09:00:00 16,2 11,6 - - 18 10 WSW 1025,1 21 60 0,0
22.08.2019 08:00:00 15,0 11,4 - - 16 9 WSW 1025,3 23 60 0,0
22.08.2019 07:00:00 14,0 11,8 - - 13 7 SW 1025,0 27 30 0,0
22.08.2019 06:00:00 13,2 11,7 - - 9 5 WSW 1024,8 15 0 0,0
22.08.2019 05:00:00 13,4 11,8 - - 11 6 SW 1024,8 17 0 0,0
22.08.2019 04:00:00 13,8 11,4 - - 13 7 WSW 1024,8 18 0 0,0
22.08.2019 03:00:00 13,7 11,2 - - 9 5 WSW 1025,0 18 0 0,0
22.08.2019 02:00:00 13,7 11,5 - - 13 7 SW 1025,0 19 0 0,0
22.08.2019 01:00:00 14,1 11,3 - - 11 6 SW 1025,3 23 - 0,0
22.08.2019 00:00:00 14,8 11,3 - - 9 5 WSW 1025,7 22 0 0,0
21.08.2019 23:00:00 15,1 10,6 - - 8 4 SW 1025,7 25 0 0,0
21.08.2019 22:00:00 15,6 11,2 - - 15 8 SSW 1025,7 30 0 0,0
21.08.2019 21:00:00 16,6 11,4 - - 15 8 SSW 1025,5 30 0 0,0
21.08.2019 20:00:00 18,1 11,6 - - 15 8 SSW 1025,3 45 24 0,0
21.08.2019 19:00:00 20,1 11,6 - - 15 8 SSW 1025,2 35 60 0,0
21.08.2019 18:00:00 21,1 11,2 - - 16 9 S 1025,3 35 60 0,0
21.08.2019 17:00:00 21,0 12,6 - - 13 7 SE 1025,7 25 60 0,0
21.08.2019 16:00:00 21,1 12,7 - - 13 7 SE 1026,0 29 60 0,0
21.08.2019 15:00:00 20,6 11,2 - - 16 9 SE 1026,4 27 60 0,0
21.08.2019 14:00:00 21,2 10,0 - - 15 8 SW 1026,6 35 60 0,0
21.08.2019 13:00:00 20,7 9,5 - - 21 11 SSW 1027,3 30 42 0,0
21.08.2019 12:00:00 20,0 11,0 - - 15 8 SW 1027,5 30 60 0,0
21.08.2019 11:00:00 18,8 11,3 - - 15 8 SW 1027,8 22 24 0,0
21.08.2019 10:00:00 18,2 11,6 17,0 17,4 13 7 WSW 1027,9 28 60 0,0
21.08.2019 09:00:00 16,8 12,0 - - 9 5 WSW 1028,0 23 60 0,0
21.08.2019 08:00:00 15,2 12,1 - - 9 5 SW 1027,9 29 60 0,0
21.08.2019 07:00:00 11,6 9,8 - - 2 1 SW 1027,5 24 24 0,0
21.08.2019 06:00:00 10,7 8,7 - - 5 3 SW 1027,3 23 0 0,0
21.08.2019 05:00:00 12,2 9,6 - - 9 5 WSW 1027,0 22 0 0,0
21.08.2019 04:00:00 13,1 9,7 - - 9 5 WSW 1026,9 23 0 0,0
21.08.2019 03:00:00 13,2 9,3 - - 9 5 WSW 1026,9 26 0 0,0
21.08.2019 02:00:00 13,3 8,2 - - 9 5 W 1026,7 22 0 0,0
21.08.2019 01:00:00 9,4 6,2 - - 5 3 W 1026,7 45 - 0,0
21.08.2019 00:00:00 10,9 5,6 - - 4 2 W 1026,5 35 0 0,0
20.08.2019 23:00:00 14,4 6,4 - - 8 4 WSW 1026,4 13 0 0,0
20.08.2019 22:00:00 14,4 6,1 - - 8 4 W 1026,0 45 0 0,0
20.08.2019 21:00:00 15,1 6,2 - - 9 5 WNW 1025,6 50 0 0,0
20.08.2019 20:00:00 17,4 6,6 - - 8 4 WNW 1024,9 40 12 0,0
20.08.2019 19:00:00 19,1 5,3 - - 13 7 W 1024,5 35 24 0,0
20.08.2019 18:00:00 20,2 6,0 - - 15 8 W 1023,9 29 18 0,0
20.08.2019 17:00:00 19,9 6,2 - - 13 7 WNW 1023,5 45 6 0,0
20.08.2019 16:00:00 20,0 5,8 - - 15 8 WNW 1023,3 45 12 0,0
20.08.2019 15:00:00 20,2 6,0 - - 18 10 WNW 1023,0 40 36 0,0
20.08.2019 14:00:00 20,3 7,7 - - 22 12 WSW 1022,7 26 60 0,0
20.08.2019 13:00:00 19,5 6,1 - - 21 11 WNW 1022,4 30 30 0,0
20.08.2019 12:00:00 18,7 7,5 - - 22 12 W 1022,3 40 54 0,0
20.08.2019 11:00:00 18,1 8,9 - - 18 10 WSW 1022,2 28 60 0,0
20.08.2019 10:00:00 16,8 11,1 17,4 17,5 15 8 WSW 1022,1 35 60 0,0
20.08.2019 09:00:00 15,5 10,8 - - 13 7 W 1021,7 23 60 0,0
20.08.2019 08:00:00 14,0 10,7 - - 15 8 W 1021,2 28 60 0,0
20.08.2019 07:00:00 12,9 10,6 - - 8 4 WSW 1020,5 22 18 0,0
20.08.2019 06:00:00 12,7 10,2 - - 11 6 W 1020,0 25 0 0,0
20.08.2019 05:00:00 13,2 10,5 - - 11 6 W 1019,5 27 0 0,0
20.08.2019 04:00:00 13,5 10,3 - - 13 7 W 1019,3 28 0 0,0
20.08.2019 03:00:00 13,5 10,6 - - 9 5 W 1019,0 25 0 0,0
20.08.2019 02:00:00 14,1 11,0 - - 11 6 W 1019,1 25 0 0,0
20.08.2019 01:00:00 14,5 11,2 - - 13 7 WSW 1019,0 30 - 0,0
20.08.2019 00:00:00 14,6 11,5 - - 15 8 WSW 1018,9 24 0 0,0
19.08.2019 23:00:00 14,9 11,5 - - 13 7 WSW 1018,5 30 0 0,0
19.08.2019 22:00:00 15,4 11,4 - - 15 8 WSW 1018,0 30 0 0,0
19.08.2019 21:00:00 16,4 11,6 - - 16 9 WSW 1017,2 40 0 0,0
19.08.2019 20:00:00 17,8 10,4 - - 18 10 WSW 1016,4 35 30 0,0
19.08.2019 19:00:00 18,5 10,0 - - 22 12 WSW 1015,8 40 30 0,0
19.08.2019 18:00:00 19,4 9,7 - - 21 11 SW 1015,3 50 30 0,0
19.08.2019 17:00:00 18,8 12,8 - - 29 16 SSW 1015,1 35 60 0,0
19.08.2019 16:00:00 19,8 10,9 - - 26 14 SW 1015,0 35 24 0,2
19.08.2019 15:00:00 20,1 10,8 - - 26 14 WSW 1014,5 35 42 0,6
19.08.2019 14:00:00 19,8 10,7 - - 16 9 WSW 1014,1 50 36 0,0
19.08.2019 13:00:00 21,0 9,9 - - 22 12 WSW 1013,8 45 60 0,0
19.08.2019 12:00:00 20,3 11,7 - - 24 13 WSW 1013,6 40 60 0,0
19.08.2019 11:00:00 19,4 12,6 - - 24 13 WSW 1013,4 22 60 0,0
19.08.2019 10:00:00 18,3 12,0 17,7 17,5 22 12 WSW 1013,0 27 60 0,0
19.08.2019 09:00:00 16,6 11,3 - - 21 11 WSW 1012,4 22 60 0,0
19.08.2019 08:00:00 15,4 11,4 - - 18 10 WSW 1012,1 25 60 0,0
19.08.2019 07:00:00 14,5 11,2 - - 21 11 WSW 1011,9 16 24 0,0
19.08.2019 06:00:00 14,1 11,4 - - 21 11 WSW 1011,6 15 0 0,0
19.08.2019 05:00:00 14,2 11,4 - - 18 10 WSW 1011,3 17 0 0,0
19.08.2019 04:00:00 14,4 11,3 - - 16 9 SW 1010,8 17 0 0,0
19.08.2019 03:00:00 14,6 11,0 - - 18 10 WSW 1010,8 19 0 0,0
19.08.2019 02:00:00 14,9 11,1 - - 21 11 WSW 1010,5 22 0 0,0
19.08.2019 01:00:00 15,0 11,8 - - 15 8 WSW 1010,0 18 - 0,0
19.08.2019 00:00:00 15,5 12,3 - - 18 10 WSW 1009,7 17 0 0,0
18.08.2019 23:00:00 15,9 11,9 - - 15 8 SW 1009,3 25 0 0,0
18.08.2019 22:00:00 16,1 10,9 - - 22 12 WSW 1009,0 35 0 0,0
18.08.2019 21:00:00 17,4 11,9 - - 21 11 SW 1008,1 27 0 0,0
18.08.2019 20:00:00 18,3 11,8 - - 22 12 WSW 1007,2 30 6 0,0
18.08.2019 19:00:00 19,0 11,6 - - 22 12 WSW 1006,7 35 30 0,0
18.08.2019 18:00:00 20,0 11,0 - - 26 14 WSW 1006,4 50 18 0,0
18.08.2019 17:00:00 20,4 11,8 - - 22 12 SW 1006,1 40 42 0,0
18.08.2019 16:00:00 20,4 10,9 - - 22 12 WSW 1005,8 45 54 0,0
18.08.2019 15:00:00 20,6 12,2 - - 21 11 WSW 1005,4 50 60 0,0
18.08.2019 14:00:00 18,5 13,9 - - 22 12 SW 1005,4 45 60 0,0
18.08.2019 13:00:00 16,2 14,3 - - 15 8 SW 1005,1 30 6 0,6
18.08.2019 12:00:00 14,4 12,8 - - 22 12 WNW 1005,2 8 0 0,6
18.08.2019 11:00:00 18,4 11,4 - - 22 12 WSW 1004,1 35 36 0,0
18.08.2019 10:00:00 18,1 12,0 17,7 17,7 18 10 SW 1003,5 40 42 0,0
18.08.2019 09:00:00 16,5 13,0 - - 16 9 SSW 1003,3 25 6 0,0
18.08.2019 08:00:00 15,7 13,2 - - 16 9 SSW 1003,3 30 0 0,0
18.08.2019 07:00:00 15,2 13,3 - - 15 8 SSW 1003,0 22 0 0,0
18.08.2019 06:00:00 15,4 12,9 - - 13 7 SW 1003,3 25 0 0,0
18.08.2019 05:00:00 15,4 12,5 - - 18 10 SW 1003,6 28 0 0,2
18.08.2019 04:00:00 15,7 12,5 - - 16 9 SW 1004,2 13 0 0,0
18.08.2019 03:00:00 16,0 12,5 - - 15 8 SW 1004,2 14 0 0,0
18.08.2019 02:00:00 16,4 12,5 - - 16 9 SW 1005,0 18 0 0,0
18.08.2019 01:00:00 16,4 12,9 - - 15 8 SW 1004,9 20 - 0,0
18.08.2019 00:00:00 16,6 13,0 - - 16 9 WSW 1005,4 17 0 0,0
17.08.2019 23:00:00 16,9 13,2 - - 21 11 WSW 1005,3 18 0 0,0
17.08.2019 22:00:00 17,2 13,2 - - 24 13 SW 1005,7 18 0 0,0
17.08.2019 21:00:00 17,8 13,1 - - 18 10 SW 1005,3 25 0 0,0
17.08.2019 20:00:00 18,7 13,3 - - 21 11 SW 1005,1 18 0 0,0
17.08.2019 19:00:00 19,7 13,5 - - 22 12 SW 1005,0 21 0 0,0
17.08.2019 18:00:00 20,7 13,4 - - 26 14 SW 1004,8 21 12 0,0
17.08.2019 17:00:00 21,8 13,1 - - 24 13 SW 1004,9 30 48 0,0
17.08.2019 16:00:00 21,4 12,9 - - 24 13 SW 1005,1 24 48 0,0
17.08.2019 15:00:00 22,3 13,6 - - 26 14 SW 1005,0 35 54 0,0
17.08.2019 14:00:00 21,1 13,1 - - 22 12 SW 1005,0 22 48 0,0
17.08.2019 13:00:00 19,4 12,8 - - 24 13 WSW 1005,1 30 30 0,0

tt = temperature
td = dewpoint
tt -20cm = temperature -20cm
tt -100cm = temperature -100cm
ff = wind speed
dd = wind direction
ppp = reduced air pressure
vv = visibility
sd = sunshine duration
rr = precipitation

Next stations